JNA271 RKSI-RJFF

Flight info

Callsign JNA271
Flight time 0h 53m
Altitude 31000
Route OSPOT Y782 TGU Y781 BESNA Y209 IKE
Aircraft B772/H-SDE2FGHIJ3J4J5M1P2RWYZ/LB1D1

Departure

Time 2026-05-08 14:24
Airport Incheon International Airport (RKSI)

Arrival

Time 2026-05-08 15:18
Airport Fukuoka Airport (RJFF)
Time Latitude Longitude Altitude Speed Heading
2026-05-08 13:56 37.46781 126.42836 37 ft 0 kts 52°
2026-05-08 14:03 37.46773 126.42823 36 ft 3 kts 52°
2026-05-08 14:03 37.46761 126.42803 36 ft 3 kts 52°
2026-05-08 14:03 37.46748 126.42783 35 ft 3 kts 52°
2026-05-08 14:04 37.46738 126.42767 35 ft 2 kts 52°
2026-05-08 14:04 37.46729 126.42747 36 ft 3 kts 83°
2026-05-08 14:04 37.46731 126.42728 35 ft 3 kts 133°
2026-05-08 14:04 37.46746 126.42713 33 ft 3 kts 154°
2026-05-08 14:05 37.46765 126.42702 34 ft 3 kts 154°
2026-05-08 14:05 37.46780 126.42692 36 ft 1 kts 139°
2026-05-08 14:05 37.46782 126.42690 35 ft 3 kts 137°
2026-05-08 14:15 37.46779 126.42694 37 ft 5 kts 137°
2026-05-08 14:15 37.46711 126.42767 37 ft 15 kts 141°
2026-05-08 14:15 37.46628 126.42841 37 ft 15 kts 145°
2026-05-08 14:16 37.46546 126.42916 37 ft 15 kts 144°
2026-05-08 14:16 37.46455 126.42988 35 ft 17 kts 152°
2026-05-08 14:16 37.46334 126.43059 37 ft 21 kts 156°
2026-05-08 14:16 37.46192 126.43143 37 ft 23 kts 151°
2026-05-08 14:17 37.46102 126.43216 37 ft 12 kts 145°
2026-05-08 14:17 37.46024 126.43287 37 ft 17 kts 136°
2026-05-08 14:17 37.46050 126.43426 37 ft 21 kts 48°
2026-05-08 14:17 37.46141 126.43588 37 ft 25 kts 52°
2026-05-08 14:18 37.46253 126.43784 37 ft 30 kts 55°
2026-05-08 14:18 37.46336 126.43932 37 ft 15 kts 54°
2026-05-08 14:18 37.46412 126.44065 37 ft 21 kts 56°
2026-05-08 14:18 37.46504 126.44229 37 ft 22 kts 54°
2026-05-08 14:19 37.46591 126.44382 37 ft 18 kts 55°
2026-05-08 14:19 37.46651 126.44518 37 ft 20 kts 74°
2026-05-08 14:19 37.46571 126.44650 35 ft 22 kts 147°
2026-05-08 14:19 37.46493 126.44716 37 ft 19 kts 145°
2026-05-08 14:20 37.46356 126.44839 37 ft 18 kts 144°
2026-05-08 14:20 37.46278 126.44909 37 ft 23 kts 146°
2026-05-08 14:20 37.46154 126.45017 35 ft 21 kts 144°
2026-05-08 14:20 37.46024 126.45134 37 ft 22 kts 144°
2026-05-08 14:21 37.45906 126.45239 37 ft 21 kts 145°
2026-05-08 14:21 37.45795 126.45338 36 ft 22 kts 145°
2026-05-08 14:21 37.45680 126.45439 35 ft 19 kts 145°
2026-05-08 14:21 37.45579 126.45530 35 ft 21 kts 144°
2026-05-08 14:22 37.45482 126.45618 37 ft 18 kts 144°
2026-05-08 14:22 37.45404 126.45687 37 ft 12 kts 144°
2026-05-08 14:22 37.45332 126.45750 37 ft 6 kts 145°
2026-05-08 14:22 37.45296 126.45801 37 ft 10 kts 106°
2026-05-08 14:23 37.45324 126.45893 37 ft 15 kts 56°
2026-05-08 14:23 37.45392 126.46012 37 ft 8 kts 54°
2026-05-08 14:23 37.45450 126.46053 37 ft 11 kts 356°
2026-05-08 14:23 37.45534 126.45989 37 ft 19 kts 326°
2026-05-08 14:24 37.45796 126.45756 37 ft 91 kts 324°
2026-05-08 14:24 37.46587 126.45045 217 ft 173 kts 324°
2026-05-08 14:24 37.47513 126.44250 1898 ft 152 kts 327°
2026-05-08 14:24 37.48374 126.43502 3191 ft 150 kts 324°
2026-05-08 14:25 37.49214 126.42760 3963 ft 150 kts 329°
2026-05-08 14:25 37.50186 126.41992 4310 ft 182 kts 329°
2026-05-08 14:25 37.51323 126.41079 4549 ft 209 kts 328°
2026-05-08 14:25 37.52617 126.40024 5038 ft 229 kts 328°
2026-05-08 14:26 37.53971 126.38913 5477 ft 234 kts 327°
2026-05-08 14:26 37.55355 126.37775 5492 ft 237 kts 328°
2026-05-08 14:26 37.56826 126.36892 5499 ft 235 kts 342°
2026-05-08 14:26 37.58408 126.36336 5504 ft 237 kts 345°
2026-05-08 14:27 37.59996 126.35808 5506 ft 236 kts 345°
2026-05-08 14:27 37.61600 126.35497 5500 ft 239 kts
2026-05-08 14:27 37.63122 126.36507 6098 ft 262 kts 46°
2026-05-08 14:27 37.63926 126.38606 6996 ft 277 kts 80°
2026-05-08 14:28 37.63754 126.41062 7877 ft 288 kts 103°
2026-05-08 14:28 37.63125 126.43474 8732 ft 298 kts 108°
2026-05-08 14:28 37.62345 126.45931 9688 ft 305 kts 110°
2026-05-08 14:28 37.61445 126.48399 10484 ft 318 kts 115°
2026-05-08 14:29 37.60283 126.50913 10843 ft 344 kts 122°
2026-05-08 14:29 37.58836 126.53386 11617 ft 357 kts 128°
2026-05-08 14:29 37.57183 126.55772 12489 ft 365 kts 133°
2026-05-08 14:29 37.55389 126.58069 13401 ft 371 kts 136°
2026-05-08 14:30 37.53494 126.60313 14290 ft 378 kts 138°
2026-05-08 14:30 37.51518 126.62541 15108 ft 383 kts 139°
2026-05-08 14:30 37.49494 126.64766 15967 ft 389 kts 140°
2026-05-08 14:30 37.47486 126.66943 16764 ft 395 kts 140°
2026-05-08 14:31 37.45314 126.69282 17586 ft 402 kts 140°
2026-05-08 14:31 37.43171 126.71586 18375 ft 409 kts 141°
2026-05-08 14:31 37.41018 126.73900 19096 ft 415 kts 141°
2026-05-08 14:32 37.36576 126.78672 20510 ft 425 kts 141°
2026-05-08 14:32 37.34309 126.81106 21191 ft 432 kts 142°
2026-05-08 14:32 37.32016 126.83569 21868 ft 437 kts 142°
2026-05-08 14:32 37.29682 126.86072 22553 ft 443 kts 142°
2026-05-08 14:33 37.27321 126.88603 23252 ft 449 kts 142°
2026-05-08 14:33 37.24923 126.91171 23903 ft 455 kts 143°
2026-05-08 14:33 37.22500 126.93766 24504 ft 460 kts 143°
2026-05-08 14:33 37.20054 126.96382 25135 ft 464 kts 144°
2026-05-08 14:34 37.17583 126.99021 25743 ft 469 kts 144°
2026-05-08 14:34 37.15084 127.01689 26371 ft 473 kts 145°
2026-05-08 14:34 37.12560 127.04381 26958 ft 478 kts 145°
2026-05-08 14:34 37.10011 127.07095 27529 ft 484 kts 146°
2026-05-08 14:35 37.07466 127.09805 28098 ft 488 kts 146°
2026-05-08 14:35 37.04868 127.12568 28656 ft 492 kts 147°
2026-05-08 14:35 37.02242 127.15358 29200 ft 497 kts 147°
2026-05-08 14:35 36.99597 127.18168 29721 ft 501 kts 148°
2026-05-08 14:36 36.96928 127.20999 30236 ft 505 kts 148°
2026-05-08 14:36 36.94250 127.23841 30763 ft 504 kts 148°
2026-05-08 14:36 36.91576 127.26678 31124 ft 504 kts 148°
2026-05-08 14:36 36.88894 127.29518 31088 ft 504 kts 148°
2026-05-08 14:37 36.83542 127.35111 31114 ft 498 kts 152°
2026-05-08 14:37 36.77855 127.39967 31129 ft 496 kts 157°
2026-05-08 14:38 36.72055 127.44692 31123 ft 498 kts 157°
2026-05-08 14:38 36.66270 127.49436 31122 ft 496 kts 156°
2026-05-08 14:39 36.60531 127.54176 31116 ft 494 kts 157°
2026-05-08 14:39 36.54855 127.58864 31110 ft 492 kts 157°
2026-05-08 14:40 36.49167 127.63551 31117 ft 491 kts 157°
2026-05-08 14:40 36.43475 127.68231 31113 ft 490 kts 157°
2026-05-08 14:41 36.37774 127.72907 31102 ft 491 kts 158°
2026-05-08 14:41 36.32068 127.77582 31106 ft 492 kts 158°
2026-05-08 14:42 36.26344 127.82261 31112 ft 493 kts 158°
2026-05-08 14:42 36.20606 127.86945 31121 ft 494 kts 159°
2026-05-08 14:43 36.14864 127.91628 31121 ft 495 kts 159°
2026-05-08 14:43 36.09100 127.96315 31119 ft 495 kts 159°
2026-05-08 14:44 36.03383 128.00957 31137 ft 494 kts 159°
2026-05-08 14:44 35.97625 128.05627 31125 ft 495 kts 160°
2026-05-08 14:45 35.91875 128.10281 31134 ft 494 kts 160°
2026-05-08 14:45 35.86135 128.14912 31149 ft 491 kts 160°
2026-05-08 14:46 35.80419 128.19522 31135 ft 490 kts 160°
2026-05-08 14:46 35.74702 128.24123 31128 ft 491 kts 160°
2026-05-08 14:47 35.68965 128.28735 31140 ft 493 kts 160°
2026-05-08 14:47 35.63210 128.33350 31116 ft 495 kts 160°
2026-05-08 14:48 35.57437 128.37972 31117 ft 495 kts 160°
2026-05-08 14:48 35.51661 128.42591 31118 ft 495 kts 160°
2026-05-08 14:49 35.45931 128.47165 31104 ft 494 kts 159°
2026-05-08 14:49 35.40174 128.51752 31108 ft 492 kts 159°
2026-05-08 14:50 35.34437 128.56314 31105 ft 491 kts 159°
2026-05-08 14:50 35.28720 128.60850 31149 ft 488 kts 159°
2026-05-08 14:51 35.23013 128.65372 31127 ft 489 kts 159°
2026-05-08 14:51 35.17302 128.69889 31106 ft 489 kts 159°
2026-05-08 14:52 35.08763 128.76631 31115 ft 488 kts 159°
2026-05-08 14:53 35.03065 128.81122 31115 ft 487 kts 159°
2026-05-08 14:53 34.97476 128.85539 30938 ft 468 kts 160°
2026-05-08 14:53 34.94751 128.87685 30540 ft 463 kts 160°
2026-05-08 14:54 34.92053 128.89800 30137 ft 459 kts 160°
2026-05-08 14:54 34.89400 128.91875 29664 ft 456 kts 160°
2026-05-08 14:54 34.86734 128.93959 29194 ft 453 kts 159°
2026-05-08 14:54 34.84090 128.96025 28748 ft 450 kts 159°
2026-05-08 14:55 34.81461 128.98081 28294 ft 447 kts 159°
2026-05-08 14:55 34.78847 129.00123 27853 ft 445 kts 159°
2026-05-08 14:55 34.76253 129.02149 27419 ft 442 kts 158°
2026-05-08 14:55 34.73669 129.04165 26990 ft 440 kts 158°
2026-05-08 14:56 34.71099 129.06170 26566 ft 438 kts 158°
2026-05-08 14:56 34.68539 129.08165 26145 ft 436 kts 158°
2026-05-08 14:56 34.65994 129.10147 25729 ft 434 kts 158°
2026-05-08 14:56 34.63458 129.12121 25320 ft 432 kts 158°
2026-05-08 14:57 34.60929 129.14077 24937 ft 429 kts 158°
2026-05-08 14:57 34.58416 129.15974 24612 ft 423 kts 158°
2026-05-08 14:57 34.55925 129.17830 24292 ft 418 kts 158°
2026-05-08 14:57 34.53460 129.19657 23978 ft 413 kts 158°
2026-05-08 14:58 34.51018 129.21467 23661 ft 409 kts 158°
2026-05-08 14:58 34.48602 129.23260 23291 ft 405 kts 158°
2026-05-08 14:58 34.46241 129.25012 22965 ft 401 kts 158°
2026-05-08 14:58 34.43874 129.26771 22648 ft 397 kts 158°
2026-05-08 14:59 34.41531 129.28512 22345 ft 394 kts 158°
2026-05-08 14:59 34.36845 129.31984 21733 ft 396 kts 158°
2026-05-08 14:59 34.34486 129.33729 21448 ft 398 kts 157°
2026-05-08 15:00 34.32129 129.35476 21153 ft 398 kts 157°
2026-05-08 15:00 34.29764 129.37230 20833 ft 398 kts 157°
2026-05-08 15:00 34.27397 129.38983 20530 ft 397 kts 156°
2026-05-08 15:00 34.25052 129.40722 20224 ft 393 kts 156°
2026-05-08 15:01 34.22738 129.42438 19936 ft 388 kts 156°
2026-05-08 15:01 34.20449 129.44132 19631 ft 384 kts 156°
2026-05-08 15:01 34.18178 129.45809 19345 ft 381 kts 156°
2026-05-08 15:01 34.15951 129.47452 19075 ft 379 kts 156°
2026-05-08 15:02 34.13702 129.49110 18777 ft 378 kts 156°
2026-05-08 15:02 34.11463 129.50759 18493 ft 377 kts 155°
2026-05-08 15:02 34.09224 129.52409 18171 ft 376 kts 155°
2026-05-08 15:02 34.07001 129.54046 17856 ft 374 kts 155°
2026-05-08 15:03 34.04782 129.55680 17559 ft 372 kts 155°
2026-05-08 15:03 34.02577 129.57314 17262 ft 371 kts 154°
2026-05-08 15:03 34.00384 129.58944 16979 ft 369 kts 154°
2026-05-08 15:03 33.98202 129.60563 16697 ft 367 kts 154°
2026-05-08 15:04 33.96030 129.62171 16420 ft 366 kts 154°
2026-05-08 15:04 33.93862 129.63755 16146 ft 364 kts 154°
2026-05-08 15:04 33.91693 129.65328 15846 ft 363 kts 154°
2026-05-08 15:04 33.89534 129.66892 15534 ft 363 kts 154°
2026-05-08 15:05 33.87371 129.68461 15225 ft 362 kts 154°
2026-05-08 15:05 33.85218 129.70023 14959 ft 361 kts 153°
2026-05-08 15:05 33.83075 129.71580 14690 ft 359 kts 153°
2026-05-08 15:05 33.80976 129.73129 14421 ft 356 kts 153°
2026-05-08 15:06 33.78890 129.74756 14148 ft 351 kts 144°
2026-05-08 15:06 33.77331 129.77005 13898 ft 353 kts 118°
2026-05-08 15:06 33.76599 129.79753 13653 ft 349 kts 94°
2026-05-08 15:06 33.76668 129.82663 13451 ft 341 kts 74°
2026-05-08 15:07 33.77424 129.85327 13236 ft 336 kts 62°
2026-05-08 15:07 33.78371 129.87876 12987 ft 340 kts 60°
2026-05-08 15:07 33.79364 129.90496 12723 ft 340 kts 60°
2026-05-08 15:07 33.80316 129.93055 12469 ft 339 kts 61°
2026-05-08 15:08 33.81251 129.95626 12229 ft 333 kts 61°
2026-05-08 15:08 33.81868 129.97341 12047 ft 328 kts 61°
2026-05-08 15:08 33.83059 130.00659 11734 ft 324 kts 62°
2026-05-08 15:08 33.83523 130.02349 11571 ft 326 kts 75°
2026-05-08 15:09 33.83477 130.05092 11340 ft 334 kts 102°
2026-05-08 15:09 33.82490 130.07627 11101 ft 339 kts 128°
2026-05-08 15:09 33.80715 130.09465 10859 ft 337 kts 154°
2026-05-08 15:09 33.78538 130.10381 10610 ft 330 kts 170°
2026-05-08 15:10 33.76302 130.11007 10407 ft 328 kts 170°
2026-05-08 15:10 33.74094 130.11640 10123 ft 325 kts 169°
2026-05-08 15:10 33.71913 130.12277 9899 ft 319 kts 169°
2026-05-08 15:10 33.69812 130.12992 9378 ft 312 kts 157°
2026-05-08 15:11 33.68178 130.14610 8699 ft 302 kts 122°
2026-05-08 15:11 33.67231 130.16790 8242 ft 298 kts 116°
2026-05-08 15:11 33.66237 130.18994 7766 ft 303 kts 118°
2026-05-08 15:11 33.65218 130.21138 7270 ft 288 kts 119°
2026-05-08 15:12 33.64246 130.23175 6818 ft 276 kts 118°
2026-05-08 15:12 33.63293 130.25157 6396 ft 278 kts 119°
2026-05-08 15:12 33.62319 130.27186 5940 ft 283 kts 118°
2026-05-08 15:12 33.61362 130.29184 5458 ft 273 kts 118°
2026-05-08 15:13 33.60424 130.31140 5035 ft 267 kts 117°
2026-05-08 15:13 33.59520 130.33036 4622 ft 258 kts 116°
2026-05-08 15:13 33.58624 130.34912 4184 ft 263 kts 117°
2026-05-08 15:13 33.57701 130.36848 3841 ft 263 kts 117°
2026-05-08 15:14 33.56810 130.38703 3495 ft 258 kts 117°
2026-05-08 15:14 33.55951 130.40488 2977 ft 238 kts 117°
2026-05-08 15:14 33.55003 130.42041 2608 ft 229 kts 139°
2026-05-08 15:14 33.53647 130.43070 2260 ft 231 kts 149°
2026-05-08 15:15 33.52348 130.44020 1895 ft 206 kts 144°
2026-05-08 15:15 33.51533 130.45310 1605 ft 188 kts 104°
2026-05-08 15:15 33.51515 130.46713 1363 ft 159 kts 70°
2026-05-08 15:15 33.51912 130.47767 1171 ft 141 kts 52°
2026-05-08 15:16 33.52626 130.48573 1111 ft 139 kts 24°
2026-05-08 15:16 33.53513 130.48609 822 ft 135 kts 332°
2026-05-08 15:16 33.54342 130.47985 766 ft 142 kts 327°
2026-05-08 15:16 33.55210 130.47388 614 ft 145 kts 330°
2026-05-08 15:17 33.56098 130.46777 388 ft 150 kts 329°
2026-05-08 15:17 33.56994 130.46160 211 ft 148 kts 330°
2026-05-08 15:17 33.57868 130.45557 55 ft 145 kts 331°
2026-05-08 15:17 33.58667 130.45018 39 ft 113 kts 331°
2026-05-08 15:18 33.59210 130.44649 32 ft 60 kts 330°
2026-05-08 15:18 33.59262 130.44486 33 ft 20 kts 236°
2026-05-08 15:18 33.59197 130.44351 34 ft 11 kts 240°
2026-05-08 15:18 33.59134 130.44319 34 ft 11 kts 160°
2026-05-08 15:19 33.59067 130.44365 34 ft 11 kts 150°
2026-05-08 15:19 33.59000 130.44408 34 ft 11 kts 152°
2026-05-08 15:19 33.58901 130.44426 35 ft 19 kts 178°
2026-05-08 15:19 33.58780 130.44472 36 ft 18 kts 147°
2026-05-08 15:20 33.58750 130.44498 36 ft 6 kts 158°
2026-05-08 15:20 33.58714 130.44479 36 ft 6 kts 225°
2026-05-08 15:20 33.58698 130.44447 36 ft 3 kts 241°
2026-05-08 15:20 33.58690 130.44430 34 ft 2 kts 241°
2026-05-08 15:21 33.58689 130.44428 35 ft 0 kts 241°